Flag for Sweden Weather past 2 weeks in Malmö, Sweden

Now
36 °F

Fog.


Feels Like: 27 °F
Forecast: 34 / 38 °F
Wind: 14 mph from South

Location: Malmo / Sturup

Current Time: Jan 26, 2015 at 9:31:13 AM

Latest Report: Jan 26, 2015 at 8:50 AM


Visibility: 0 mi

Pressure: 30.07 "Hg

Humidity: 100%

Dew point: 36 °F

Location of MalmöLocation

Historic Weather in Malmö — Graph

°F

Malmö temperature yesterday

Maximum temperature yesterday: 36 °F (at 12:50 PM)
Minimum temperature yesterday: 23 °F (at 5:20 AM)
Average temperature yesterday: 31 °F

Past Weeks' High & Low Weather Summary

 TemperatureHumidityPressure
High46 °F (Jan 13, 1:20 PM)100% (Jan 12, 11:20 AM)30.27 "Hg (Jan 12, 11:20 AM)
Low23 °F (Jan 25, 5:20 AM)70% (Jan 11, 11:50 AM)29.27 "Hg (Jan 11, 8:20 AM)
Average35 °F92%29.81 "Hg
* Reported Jan 11 8:20 AM — Jan 26 8:20 AM, Malmö, Weather by CustomWeather, © 2014

Note: Actual official high and low records may vary slightly from our data, if they occured in-between our weather recording intervals... More about our weather records

Advertising

Malmö weather history for previous 24 hours

 ConditionsComfort  
Time TempWeatherWind HumidityBarometerVisibility
8:20 AM
Jan 26
36 °FFog.13 mph100%30.07 "Hg1 mi
7:50 AM36 °FFog.13 mph100%30.07 "Hg1 mi
7:20 AM36 °FFog.12 mph100%30.07 "Hg0 mi
6:50 AM36 °FFog.8 mph100%30.09 "Hg1 mi
6:20 AM34 °FFog.9 mph100%30.09 "Hg1 mi
5:50 AM34 °FFog.7 mph100%30.12 "Hg0 mi
5:20 AM34 °FFog.5 mph100%30.12 "Hg0 mi
4:50 AM34 °FFog.6 mph100%30.12 "Hg0 mi
4:20 AM34 °FFog.8 mph100%30.12 "Hg0 mi
3:50 AM34 °FFog.8 mph100%30.12 "Hg0 mi
3:20 AM34 °FFog.8 mph100%30.15 "Hg1 mi
2:50 AM34 °FFog.7 mph93%30.15 "Hg3 mi
2:20 AM32 °FIce fog.5 mph100%30.15 "Hg4 mi
1:50 AM32 °FIce fog.7 mph93%30.18 "Hg4 mi
1:20 AM28 °FIce fog.6 mph100%30.18 "Hg4 mi
12:50 AM27 °FIce fog.5 mph100%30.18 "Hg4 mi
12:20 AM27 °FIce fog.5 mph100%30.18 "Hg4 mi
11:50 PM
Jan 25
28 °FIce fog.5 mph100%30.18 "Hg4 mi
11:20 PM25 °FLight fog.3 mph100%30.21 "Hg4 mi
10:20 PM27 °FFog.3 mph100%30.21 "Hg4 mi
9:50 PM28 °FFog.3 mph100%30.21 "Hg4 mi
9:20 PM28 °FFog.No wind100%30.21 "Hg4 mi
8:50 PM30 °FIce fog.3 mph100%30.21 "Hg4 mi
8:20 PM30 °FIce fog.3 mph100%30.21 "Hg4 mi
7:50 PM32 °FIce fog.3 mph93%30.21 "Hg5 mi
7:20 PM32 °FIce fog.3 mph100%30.21 "Hg5 mi
6:50 PM34 °FFog.2 mph93%30.21 "Hg6 mi
6:20 PM34 °FFog.2 mph93%30.21 "Hg6 mi
5:50 PM34 °FPassing clouds.5 mph100%30.18 "HgN/A
5:20 PM34 °FOvercast.1 mph93%30.18 "HgN/A
4:50 PM34 °FPassing clouds.2 mph93%30.18 "HgN/A
4:20 PM34 °FFog.1 mph93%30.18 "Hg5 mi
3:50 PM36 °FFog.3 mph93%30.18 "Hg5 mi
3:20 PM36 °FFog.3 mph93%30.15 "Hg6 mi
2:50 PM34 °FFog.6 mph100%30.15 "Hg6 mi
2:20 PM36 °FPartly sunny.6 mph93%30.15 "HgN/A
1:50 PM36 °FFog.5 mph93%30.15 "Hg6 mi
1:20 PM36 °FFog.5 mph93%30.15 "Hg6 mi
12:50 PM36 °FFog.6 mph93%30.15 "Hg6 mi
12:20 PM34 °FFog.5 mph100%30.15 "Hg6 mi
11:50 AM34 °FFog.5 mph100%30.15 "Hg6 mi
11:20 AM34 °FFog.6 mph100%30.15 "Hg5 mi
10:50 AM32 °FIce fog.6 mph100%30.12 "Hg4 mi
10:20 AM32 °FIce fog.3 mph100%30.12 "Hg5 mi
9:50 AM32 °FIce fog.5 mph100%30.12 "Hg5 mi
9:20 AM30 °FIce fog.3 mph100%30.12 "Hg3 mi
Weather by CustomWeather, © 2014

See weather overviewHow to use our weather pages